FW5435 Weather Reports


time (UTC)temp
C
wind
direction
speed
KPH
gust
KPH
rain 1hr
cm
rain 24hr
cm
rain mn
cm
humidity
%
barometer
mb
20260508030100 12 0 0.0 0.0 0.00 0.00 0.00 93 1012.0
20260508025537 12 0 0.0 0.0 0.00 0.00 0.00 93 1011.9
20260508025037 12 0 0.0 0.0 0.00 0.00 0.00 93 1011.8
20260508024608 12 0 0.0 0.0 0.00 0.00 0.00 93 1011.8
20260508024039 12 0 0.0 0.0 0.00 0.00 0.00 93 1011.8
20260508023537 12 0 0.0 0.0 0.00 0.00 0.00 93 1011.8
20260508023045 12 0 0.0 0.0 0.00 0.00 0.00 93 1011.6
20260508022537 12 0 0.0 0.0 0.00 0.00 0.00 93 1011.6
20260508022036 12 0 0.0 0.0 0.00 0.00 0.00 93 1011.6
20260508021543 12 0 0.0 0.0 0.00 0.00 0.00 93 1011.8
20260508021035 12 0 0.0 0.0 0.00 0.00 0.00 93 1011.6
20260508020536 12 0 0.0 0.0 0.00 0.00 0.00 93 1011.6
20260508020100 12 0 0.0 0.0 0.00 0.00 0.00 93 1011.6
20260508015536 12 0 0.0 0.0 0.00 0.00 0.00 93 1011.6
20260508015036 12 0 0.0 0.0 0.00 0.00 0.00 93 1011.5
20260508014545 12 0 0.0 0.0 0.00 0.00 0.00 92 1011.4
20260508014035 12 0 0.0 0.0 0.00 0.00 0.00 92 1011.3
20260508013536 12 0 0.0 0.0 0.00 0.00 0.00 92 1011.0
20260508013054 12 0 0.0 0.0 0.00 0.00 0.00 93 1010.8
20260508012536 12 0 0.0 0.0 0.00 0.00 0.00 92 1010.8
20260508012036 12 0 0.0 0.0 0.00 0.00 0.00 93 1010.7
20260508011546 12 0 0.0 0.0 0.00 0.00 0.00 93 1010.9
20260508011038 12 0 0.0 0.0 0.00 0.00 0.00 93 1011.0
20260508010535 12 0 0.0 0.0 0.00 0.00 0.00 93 1011.2
20260508010041 12 0 0.0 0.0 0.00 0.00 0.00 93 1011.2
20260508005535 12 0 0.0 0.0 0.00 0.00 0.00 93 1011.0
20260508005036 12 0 0.0 0.0 0.00 0.00 0.00 93 1010.8
20260508004542 12 0 0.0 0.0 0.00 0.00 0.00 93 1010.7
20260508004036 12 0 0.0 0.0 0.00 0.00 0.00 93 1010.6
20260508003536 12 0 0.0 0.0 0.00 0.00 0.00 93 1010.5
20260508003044 12 0 0.0 0.0 0.00 0.00 0.00 93 1010.3
20260508002535 12 0 0.0 0.0 0.00 0.00 0.00 93 1010.2
20260508002035 12 0 0.0 0.0 0.00 0.00 0.00 93 1010.4
20260508001552 12 0 0.0 0.0 0.00 0.00 0.00 93 1010.6
20260508001036 12 0 0.0 0.0 0.00 0.00 0.00 93 1010.4
20260508000536 12 0 0.0 0.0 0.00 0.00 0.00 93 1010.3
20260508000044 12 0 0.0 0.0 0.00 0.00 0.00 93 1010.2
20260507235537 12 0 0.0 0.0 0.00 0.00 0.00 93 1010.0
20260507235035 12 0 0.0 0.0 0.00 0.00 0.00 93 1010.0
20260507234545 12 0 0.0 0.0 0.00 0.00 0.00 93 1009.9
20260507234036 12 0 0.0 0.0 0.00 0.00 0.00 93 1009.7
20260507233535 12 0 0.0 0.0 0.00 0.00 0.00 93 1009.8
20260507233046 12 0 0.0 0.0 0.00 0.00 0.00 93 1009.7
20260507232535 12 0 0.0 0.0 0.00 0.00 0.00 93 1009.4
20260507232036 12 0 0.0 0.0 0.00 0.00 0.00 93 1009.2
20260507231545 12 0 0.0 0.0 0.00 0.00 0.00 93 1009.3
20260507231036 12 0 0.0 3.2 0.00 0.00 0.00 93 1009.4
20260507230536 12 0 0.0 3.2 0.00 0.00 0.00 93 1009.4
20260507230043 12 0 0.0 6.4 0.00 0.00 0.00 93 1009.5
20260507225539 12 0 0.0 6.4 0.00 0.00 0.00 93 1009.3
20260507225036 12 0 0.0 6.4 0.00 0.00 0.00 93 1009.3
20260507224551 12 0 0.0 0.0 0.00 0.00 0.00 93 1009.3
20260507224037 12 0 0.0 3.2 0.00 0.00 0.00 93 1009.3
20260507223537 12 0 0.0 3.2 0.00 0.00 0.00 93 1009.3
20260507223051 12 0 0.0 6.4 0.00 0.00 0.00 93 1009.1
20260507222538 12 0 0.0 6.4 0.00 0.00 0.00 93 1009.1
20260507222035 12 309 0.0 4.8 0.00 0.00 0.00 93 1009.1
20260507221548 12 0 0.0 3.2 0.00 0.00 0.00 93 1009.3
20260507221036 12 0 0.0 3.2 0.00 0.00 0.00 93 1009.3
20260507220534 12 0 0.0 3.2 0.00 0.00 0.00 93 1009.3
20260507220052 13 0 0.0 0.0 0.00 0.00 0.00 93 1009.3
20260507215535 13 0 0.0 0.0 0.00 0.00 0.00 93 1009.5
20260507215034 13 0 0.0 3.2 0.00 0.00 0.00 93 1009.4
20260507214548 12 0 0.0 3.2 0.00 0.00 0.00 93 1009.1
20260507214037 13 0 0.0 0.0 0.00 0.00 0.00 93 1009.1
20260507213536 13 0 0.0 0.0 0.00 0.00 0.00 93 1009.1
20260507213054 12 0 0.0 3.2 0.00 0.00 0.00 93 1009.1
20260507212534 13 0 0.0 3.2 0.00 0.00 0.00 93 1009.3
20260507212036 13 0 0.0 3.2 0.00 0.00 0.00 93 1009.0
20260507211550 12 0 0.0 0.0 0.00 0.00 0.00 93 1009.1
20260507211035 12 0 0.0 0.0 0.00 0.00 0.00 93 1009.0
20260507210535 12 0 0.0 4.8 0.00 0.00 0.00 93 1009.0
20260507210046 12 0 0.0 4.8 0.00 0.00 0.00 93 1009.0
20260507205535 12 0 0.0 3.2 0.00 0.00 0.00 93 1008.9
20260507205035 13 0 0.0 3.2 0.00 0.00 0.00 93 1008.8
20260507204543 13 0 0.0 4.8 0.00 0.00 0.00 93 1008.7
20260507204035 13 0 0.0 4.8 0.00 0.00 0.00 93 1008.7
20260507203535 13 339 0.0 6.4 0.00 0.00 0.00 93 1008.9
20260507203044 13 0 0.0 6.4 0.00 0.00 0.00 93 1008.8
20260507202539 13 331 0.0 6.4 0.00 0.00 0.00 93 1008.7
20260507202035 13 0 0.0 4.8 0.00 0.00 0.00 93 1008.7
20260507201547 13 0 0.0 8.0 0.00 0.00 0.00 93 1008.7
20260507201036 13 304 0.0 11.3 0.00 0.00 0.00 93 1008.6
20260507200536 13 90 0.0 11.3 0.00 0.00 0.00 93 1008.5
20260507200044 13 0 0.0 3.2 0.00 0.00 0.00 93 1008.7
20260507195535 13 0 0.0 1.6 0.00 0.00 0.00 94 1008.7
20260507195035 14 0 0.0 1.6 0.00 0.00 0.00 94 1008.4
20260507194541 14 0 0.0 0.0 0.00 0.00 0.00 94 1008.3
20260507194035 14 0 0.0 0.0 0.00 0.00 0.00 94 1008.3
20260507193535 13 0 0.0 1.6 0.00 0.00 0.00 94 1008.3
20260507193045 13 0 0.0 1.6 0.00 0.00 0.00 94 1008.4
20260507192534 13 0 0.0 1.6 0.00 0.00 0.00 94 1008.6
20260507192036 13 0 0.0 1.6 0.00 0.00 0.00 93 1008.7
20260507191544 13 0 0.0 6.4 0.00 0.00 0.00 93 1008.7
20260507191035 13 0 0.0 6.4 0.00 0.00 0.00 93 1008.8
20260507190535 13 311 0.0 1.6 0.00 0.00 0.00 93 1008.9
20260507190043 14 0 0.0 3.2 0.00 0.00 0.00 93 1008.8
20260507185535 14 0 0.0 16.1 0.00 0.00 0.00 93 1008.6
20260507185034 14 0 0.0 16.1 0.00 0.00 0.00 93 1008.1
20260507184542 14 0 1.6 16.1 0.00 0.00 0.00 93 1008.1
20260507184035 14 0 0.0 4.8 0.00 0.00 0.00 93 1008.5
20260507183534 14 0 0.0 4.8 0.00 0.00 0.00 93 1008.6
20260507183051 14 0 0.0 6.4 0.00 0.00 0.00 93 1008.7
20260507182536 15 0 0.0 6.4 0.00 0.00 0.00 93 1008.5
20260507182035 15 309 0.0 4.8 0.00 0.00 0.00 93 1007.9
20260507181548 15 0 0.0 4.8 0.00 0.00 0.00 93 1007.9
20260507181035 15 0 0.0 4.8 0.00 0.00 0.00 93 1007.8
20260507180537 15 0 0.0 11.3 0.00 0.00 0.00 93 1007.9
20260507180051 15 0 0.0 11.3 0.00 0.00 0.00 92 1007.8
20260507175535 15 19 0.0 12.9 0.00 0.00 0.00 92 1007.9
20260507175035 15 0 0.0 12.9 0.00 0.00 0.00 92 1008.1
20260507174549 16 0 0.0 12.9 0.00 0.00 0.00 91 1008.6
20260507174034 16 277 0.0 4.8 0.00 0.00 0.00 92 1008.8
20260507173538 16 0 0.0 6.4 0.00 0.00 0.00 91 1008.7
20260507173056 17 290 0.0 14.5 0.00 0.00 0.00 91 1008.3
20260507172535 17 331 0.0 14.5 0.00 0.00 0.00 90 1007.5
20260507172037 18 13 0.0 14.5 0.00 0.00 0.00 91 1007.5
20260507171541 19 98 0.0 1.6 0.00 0.00 0.00 95 1007.2
20260507171035 19 0 0.0 1.6 0.00 0.00 0.00 95 1006.9
20260507170537 19 0 0.0 0.0 0.00 0.00 0.00 95 1006.7
20260507170052 20 0 0.0 0.0 0.00 0.00 0.00 95 1006.8
20260507165536 20 0 0.0 6.4 0.00 0.00 0.00 95 1006.8
20260507165039 20 0 0.0 6.4 0.00 0.00 0.00 95 1006.8
20260507164547 20 0 0.0 6.4 0.00 0.00 0.00 95 1007.0
20260507164035 20 268 0.0 0.0 0.00 0.00 0.00 95 1007.2
20260507163535 20 0 0.0 4.8 0.00 0.00 0.00 96 1007.5
20260507163045 20 0 0.0 4.8 0.00 0.00 0.00 96 1007.9
20260507162535 20 268 0.0 6.4 0.00 0.00 0.00 96 1008.0
20260507162035 20 269 0.0 6.4 0.00 0.00 0.00 96 1008.2
20260507161551 20 263 0.0 3.2 0.00 0.00 0.00 96 1008.1
20260507161034 20 0 0.0 3.2 0.00 0.00 0.00 96 1008.2
20260507160535 20 0 0.0 4.8 0.00 0.00 0.00 96 1008.5
20260507160044 20 263 0.0 4.8 0.00 0.00 0.00 96 1008.5
20260507155534 20 263 0.0 3.2 0.00 0.00 0.00 96 1008.5
20260507155038 20 0 0.0 1.6 0.00 0.00 0.00 96 1008.5
20260507154543 20 0 0.0 3.2 0.00 0.00 0.00 96 1008.4
20260507154036 20 0 0.0 3.2 0.00 0.00 0.00 96 1008.3
20260507153534 20 0 0.0 0.0 0.00 0.00 0.00 96 1007.9
20260507153101 20 0 0.0 3.2 0.00 0.00 0.00 96 1007.8
20260507152534 20 0 0.0 3.2 0.00 0.00 0.00 96 1008.1
20260507152034 20 277 0.0 3.2 0.00 0.00 0.00 96 1008.3
20260507151544 20 0 0.0 4.8 0.00 0.00 0.00 96 1008.1
20260507151034 20 0 1.6 4.8 0.00 0.00 0.00 96 1008.3
20260507150534 20 0 0.0 4.8 0.00 0.00 0.00 96 1008.3
20260507150045 20 0 0.0 3.2 0.00 0.00 0.00 96 1008.3
20260507145535 19 0 0.0 4.8 0.00 0.00 0.00 96 1008.4
20260507145130 19 0 1.6 4.8 0.00 0.00 0.00 96 1008.5
20260507144549 19 0 0.0 4.8 0.00 0.00 0.00 96 1008.5
20260507144035 19 0 1.6 4.8 0.00 0.00 0.00 96 1008.6
20260507143534 20 0 0.0 4.8 0.00 0.00 0.00 96 1008.6
20260507143056 19 0 0.0 6.4 0.00 0.00 0.00 96 1008.6
20260507142535 19 269 0.0 6.4 0.00 0.00 0.00 96 1008.6
20260507142034 19 269 1.6 6.4 0.00 0.00 0.00 96 1008.5
20260507141549 19 0 1.6 6.4 0.00 0.00 0.00 96 1008.4
20260507141035 19 0 0.0 9.7 0.00 0.00 0.00 96 1008.4
20260507140536 20 0 0.0 9.7 0.00 0.00 0.00 96 1008.4
20260507140056 20 265 0.0 6.4 0.00 0.00 0.00 96 1008.6
20260507135534 19 0 0.0 4.8 0.00 0.00 0.00 96 1008.7
20260507135035 19 0 0.0 6.4 0.00 0.00 0.00 96 1008.8
20260507134551 19 260 0.0 6.4 0.00 0.00 0.00 96 1009.1
20260507134034 19 269 0.0 4.8 0.00 0.00 0.00 96 1009.1
20260507133535 19 269 1.6 4.8 0.00 0.00 0.00 96 1009.1
20260507133050 19 0 0.0 4.8 0.00 0.00 0.00 96 1008.9
20260507132535 19 0 0.0 3.2 0.00 0.00 0.00 96 1008.9
20260507132034 19 269 0.0 3.2 0.00 0.00 0.00 96 1009.0
20260507131551 19 0 0.0 1.6 0.00 0.00 0.00 96 1008.9
20260507131035 19 0 0.0 3.2 0.00 0.00 0.00 96 1009.0
20260507130534 19 0 0.0 3.2 0.00 0.00 0.00 96 1009.0
20260507125534 19 0 0.0 4.8 0.00 0.00 0.00 96 1009.1
20260507125035 19 0 0.0 4.8 0.00 0.00 0.00 96 1009.1
20260507124555 19 269 0.0 3.2 0.00 0.00 0.00 96 1009.1
20260507124035 19 0 0.0 3.2 0.00 0.00 0.00 96 1009.0
20260507123535 19 0 0.0 3.2 0.00 0.00 0.00 96 1009.2
20260507123044 18 269 0.0 3.2 0.00 0.00 0.00 96 1009.1
20260507122535 18 0 0.0 1.6 0.00 0.00 0.00 96 1009.1
20260507122034 18 0 0.0 3.2 0.00 0.00 0.00 96 1008.9
20260507121549 18 0 0.0 3.2 0.00 0.00 0.00 96 1008.7
20260507121035 18 0 0.0 3.2 0.00 0.00 0.00 96 1009.0
20260507120534 18 269 0.0 0.0 0.00 0.00 0.00 96 1009.0
20260507120044 18 0 0.0 0.0 0.00 0.00 0.00 96 1009.1
20260507115535 18 0 0.0 0.0 0.00 0.00 0.00 96 1009.2
20260507115034 18 0 0.0 1.6 0.00 0.00 0.00 96 1009.1
20260507114550 18 0 0.0 4.8 0.00 0.00 0.00 96 1009.2
20260507114035 18 0 1.6 4.8 0.00 0.00 0.00 96 1009.5
20260507113537 18 0 0.0 3.2 0.00 0.00 0.00 96 1009.6
20260507113046 18 0 0.0 4.8 0.00 0.00 0.00 96 1009.4
20260507112537 18 0 0.0 4.8 0.00 0.00 0.00 96 1009.5
20260507112037 18 0 1.6 4.8 0.00 0.00 0.00 96 1009.4
20260507111547 18 0 0.0 4.8 0.00 0.00 0.00 96 1009.5
20260507111034 18 0 1.6 4.8 0.00 0.00 0.00 96 1009.6
20260507110534 18 0 0.0 4.8 0.00 0.00 0.00 96 1009.5
20260507110055 18 0 1.6 4.8 0.00 0.00 0.00 96 1009.5
20260507105533 18 0 0.0 6.4 0.00 0.00 0.00 96 1009.3
20260507105035 18 0 0.0 6.4 0.00 0.00 0.00 96 1009.2
20260507104550 18 259 0.0 6.4 0.00 0.00 0.00 96 1009.1
20260507104034 18 0 0.0 6.4 0.00 0.00 0.00 96 1009.1
20260507103536 18 0 0.0 3.2 0.00 0.00 0.00 96 1009.0
20260507103111 18 0 0.0 4.8 0.00 0.00 0.00 96 1009.3
20260507102534 18 0 0.0 4.8 0.00 0.00 0.00 96 1009.1
20260507102035 18 0 0.0 0.0 0.00 0.00 0.00 95 1008.9
20260507101542 18 0 0.0 0.0 0.00 0.00 0.00 95 1009.0
20260507101034 18 0 0.0 0.0 0.00 0.00 0.00 95 1009.1
20260507100534 17 0 0.0 0.0 0.00 0.00 0.00 95 1009.0
20260507100057 17 0 0.0 0.0 0.00 0.00 0.00 95 1009.0
20260507095534 18 0 0.0 0.0 0.00 0.00 0.00 95 1009.0
20260507095034 17 0 0.0 0.0 0.00 0.00 0.00 95 1009.0
20260507094547 17 0 0.0 0.0 0.00 0.00 0.00 95 1009.0
20260507094034 17 0 0.0 0.0 0.00 0.00 0.00 95 1009.0
20260507093536 17 0 0.0 0.0 0.00 0.00 0.00 95 1009.2
20260507093046 17 0 0.0 0.0 0.00 0.00 0.00 95 1009.2
20260507092538 17 0 0.0 0.0 0.00 0.00 0.00 94 1009.0
20260507092033 17 0 0.0 0.0 0.00 0.00 0.00 94 1009.1
20260507091547 17 0 0.0 0.0 0.00 0.00 0.00 94 1009.1
20260507091035 17 0 0.0 0.0 0.00 0.00 0.00 94 1009.1
20260507090537 17 0 0.0 0.0 0.00 0.00 0.00 94 1009.1
20260507090046 17 0 0.0 4.8 0.00 0.00 0.00 94 1009.3
20260507085534 18 0 0.0 4.8 0.00 0.00 0.00 94 1009.2
20260507085035 18 0 0.0 0.0 0.00 0.00 0.00 94 1009.2
20260507084546 18 0 0.0 0.0 0.00 0.00 0.00 94 1009.1
20260507084033 18 0 0.0 0.0 0.00 0.00 0.00 94 1009.3
20260507083535 18 0 0.0 0.0 0.00 0.00 0.00 94 1009.5
20260507083045 18 0 0.0 0.0 0.00 0.00 0.00 94 1009.6
20260507082537 18 0 0.0 0.0 0.00 0.00 0.00 94 1009.8
20260507082034 18 0 0.0 1.6 0.00 0.00 0.00 94 1010.0
20260507081543 18 0 0.0 1.6 0.00 0.00 0.00 94 1010.1
20260507081035 18 0 0.0 0.0 0.00 0.00 0.00 94 1010.1
20260507080534 18 0 0.0 0.0 0.00 0.00 0.00 94 1009.8
20260507080055 18 0 0.0 0.0 0.00 0.00 0.00 94 1009.3
20260507075534 18 0 0.0 0.0 0.00 0.00 0.00 94 1009.4
20260507075034 18 0 0.0 0.0 0.00 0.00 0.00 94 1009.4
20260507074543 18 0 0.0 0.0 0.00 0.00 0.00 94 1009.5
20260507074033 18 0 0.0 0.0 0.00 0.00 0.00 93 1010.0
20260507073536 18 0 0.0 0.0 0.00 0.00 0.00 93 1010.2
20260507073045 18 0 0.0 0.0 0.00 0.00 0.00 93 1010.5
20260507072534 18 0 0.0 0.0 0.00 0.00 0.00 93 1010.2
20260507072033 18 0 0.0 0.0 0.00 0.00 0.00 93 1010.4
20260507071548 18 0 0.0 0.0 0.00 0.00 0.00 93 1010.2
20260507071034 18 0 0.0 0.0 0.00 0.00 0.00 93 1010.1
20260507070534 18 0 0.0 0.0 0.00 0.00 0.00 93 1010.3
20260507070101 18 0 0.0 0.0 0.00 0.00 0.00 93 1010.1
20260507065533 18 0 0.0 0.0 0.00 0.00 0.00 93 1009.8
20260507065033 18 0 0.0 0.0 0.00 0.00 0.00 93 1010.2
20260507064551 18 0 0.0 0.0 0.00 0.00 0.00 93 1010.4
20260507064034 18 0 0.0 0.0 0.00 0.00 0.00 93 1010.5
20260507063533 18 0 0.0 0.0 0.00 0.00 0.00 93 1010.9
20260507063041 18 0 0.0 0.0 0.00 0.00 0.00 93 1010.8
20260507062533 18 0 0.0 0.0 0.00 0.00 0.00 93 1010.9
20260507062033 18 0 0.0 0.0 0.00 0.00 0.00 93 1010.8
20260507061547 18 0 0.0 0.0 0.00 0.00 0.00 93 1010.6
20260507061033 18 0 0.0 0.0 0.00 0.00 0.00 93 1010.7
20260507060534 18 0 0.0 0.0 0.00 0.00 0.00 92 1010.8
20260507060045 18 0 0.0 0.0 0.00 0.00 0.00 93 1011.2
20260507055534 18 0 0.0 0.0 0.00 0.00 0.00 93 1010.9
20260507055033 18 0 0.0 0.0 0.00 0.00 0.00 93 1011.1
20260507054605 18 0 0.0 1.6 0.00 0.00 0.00 92 1011.3
20260507054034 18 0 0.0 1.6 0.00 0.00 0.00 92 1011.4
20260507053536 18 0 0.0 0.0 0.00 0.00 0.00 92 1010.7
20260507053051 18 0 0.0 0.0 0.00 0.00 0.00 92 1010.2
20260507052533 18 0 0.0 0.0 0.00 0.00 0.00 92 1010.0
20260507052034 18 0 0.0 9.7 0.00 0.00 0.00 92 1010.0
20260507051550 18 0 0.0 9.7 0.00 0.00 0.00 92 1010.3
20260507051033 18 0 1.6 8.0 0.00 0.00 0.00 91 1010.6
20260507050535 18 0 0.0 6.4 0.00 0.00 0.00 91 1010.8
20260507050057 19 263 3.2 4.8 0.00 0.00 0.00 91 1011.1
20260507045534 19 0 0.0 9.7 0.00 0.00 0.00 91 1011.3
20260507045033 19 0 0.0 9.7 0.00 0.00 0.00 90 1011.8
20260507044554 19 267 1.6 12.9 0.00 0.00 0.00 90 1012.4
20260507044035 19 0 0.0 12.9 0.00 0.00 0.00 90 1012.5
20260507043534 20 275 3.2 14.5 0.00 0.00 0.00 89 1012.4
20260507043045 20 258 1.6 14.5 0.00 0.00 0.00 89 1012.5
20260507042533 20 277 1.6 9.7 0.00 0.00 0.00 88 1012.5
20260507042034 20 271 3.2 9.7 0.00 0.00 0.00 88 1012.6
20260507041559 20 265 1.6 9.7 0.00 0.00 0.00 88 1012.5
20260507041036 20 273 1.6 11.3 0.00 0.00 0.00 89 1012.4
20260507040534 19 269 3.2 11.3 0.00 0.00 0.00 90 1012.3
20260507040044 19 265 3.2 9.7 0.00 0.00 0.00 91 1012.1
20260507035533 19 266 0.0 0.0 0.00 0.00 0.00 92 1011.9
20260507035035 19 0 0.0 0.0 0.00 0.00 0.00 92 1011.6
20260507034546 19 0 0.0 0.0 0.00 0.00 0.00 91 1011.5
20260507034034 19 0 0.0 0.0 0.00 0.00 0.00 91 1011.2
20260507033534 19 0 0.0 0.0 0.00 0.00 0.00 91 1010.9
20260507033048 19 0 0.0 0.0 0.00 0.00 0.00 91 1010.9
20260507032537 19 0 0.0 4.8 0.00 0.00 0.00 91 1011.3
20260507032035 19 0 0.0 4.8 0.00 0.00 0.00 91 1011.7
20260507031546 19 266 0.0 4.8 0.00 0.00 0.00 92 1011.7
20260507031036 19 0 0.0 4.8 0.00 0.00 0.00 92 1011.6
20260507030534 19 0 0.0 0.0 0.00 0.00 0.00 93 1011.5